Flag for Ireland Weather past 2 weeks in Dublin, Ireland

Now
66 °F

Partly sunny.


Feels Like: 66 °F
Forecast: 55 / 61 °F
Wind: 7 mph from West

Location: Dublin Airport

Current Time: Aug 1, 2014 at 3:13:41 PM

Latest Report: Aug 1, 2014 at 2:30 PM


Visibility: N/A

Pressure: 29.65 "Hg

Humidity: 56%

Dew point: 50 °F

Location of DublinLocation

Historic Weather in Dublin — Graph

°F

Dublin temperature yesterday

Maximum temperature yesterday: 70 °F (at 2:00 PM)
Minimum temperature yesterday: 57 °F (at 3:30 AM)
Average temperature yesterday: 62 °F

Past Weeks' High & Low Weather Summary

 TemperatureHumidityPressure
High75 °F (Jul 23, 2:30 PM)100% (Jul 17, 10:30 PM)30.24 "Hg (Jul 17, 10:30 PM)
Low52 °F (Jul 21, 4:00 AM)46% (Jul 27, 2:00 PM)29.65 "Hg (Aug 1, 12:00 PM)
Average63 °F81%30.00 "Hg
* Reported Jul 17 2:00 PM — Aug 1 2:00 PM, Dublin, Weather by CustomWeather, © 2014

Note: Actual official high and low records may vary slightly from our data, if they occured in-between our weather recording intervals... More about our weather records

Advertising

Dublin weather history for previous 24 hours

 ConditionsComfort  
Time TempWeatherWind HumidityBarometerVisibility
2:00 PM
Aug 1
64 °FPartly sunny.7 mph60%29.65 "HgN/A
1:30 PM63 °FBroken clouds.7 mph73%29.65 "HgN/A
1:00 PM63 °FBroken clouds.8 mph73%29.65 "HgN/A
12:30 PM61 °FSprinkles. Broken clouds.10 mph77%29.65 "HgN/A
12:00 PM61 °FBroken clouds.6 mph72%29.65 "HgN/A
11:30 AM61 °FBroken clouds.7 mph77%29.68 "HgN/A
11:00 AM59 °FPartly sunny.7 mph82%29.68 "HgN/A
10:30 AM59 °FPartly sunny.7 mph82%29.68 "HgN/A
10:00 AM57 °FPartly sunny.7 mph88%29.68 "HgN/A
9:30 AM57 °FPartly sunny.5 mph88%29.68 "HgN/A
9:00 AM55 °FPartly sunny.5 mph94%29.68 "HgN/A
8:30 AM55 °FLight rain. Partly sunny.6 mph94%29.68 "HgN/A
8:00 AM55 °FLight rain. Mostly cloudy.8 mph94%29.68 "HgN/A
7:30 AM55 °FLight rain. Broken clouds.7 mph94%29.68 "HgN/A
7:00 AM55 °FLight rain. More clouds than sun.6 mph94%29.68 "Hg4 mi
6:30 AM55 °FLight rain. Mostly cloudy.5 mph94%29.71 "Hg5 mi
6:00 AM55 °FLight rain. Mostly cloudy.5 mph94%29.71 "HgN/A
5:30 AM55 °FLight rain. Mostly cloudy.6 mph94%29.71 "Hg5 mi
4:30 AM55 °FLight rain. Mostly cloudy.7 mph94%29.71 "Hg5 mi
4:00 AM55 °FLight rain. Passing clouds.6 mph88%29.74 "HgN/A
3:30 AM55 °FPartly cloudy.3 mph88%29.74 "HgN/A
3:00 AM55 °FPartly cloudy.7 mph82%29.74 "HgN/A
2:30 AM55 °FPartly cloudy.8 mph82%29.74 "HgN/A
2:00 AM55 °FPartly cloudy.6 mph82%29.77 "HgN/A
1:30 AM55 °FPassing clouds.6 mph82%29.77 "HgN/A
1:00 AM57 °FPassing clouds.6 mph82%29.77 "HgN/A
12:30 AM55 °FPassing clouds.6 mph82%29.77 "HgN/A
12:00 AM57 °FPassing clouds.7 mph77%29.77 "HgN/A
11:30 PM
Jul 31
57 °FPassing clouds.9 mph77%29.77 "HgN/A
11:00 PM57 °FPassing clouds.8 mph77%29.77 "HgN/A
10:30 PM59 °FPassing clouds.9 mph68%29.80 "HgN/A
10:00 PM59 °FPartly sunny.10 mph68%29.80 "HgN/A
9:30 PM61 °FPartly sunny.12 mph63%29.77 "HgN/A
9:00 PM61 °FBroken clouds.17 mph63%29.77 "HgN/A
8:30 PM63 °FScattered clouds.13 mph73%29.77 "HgN/A
8:00 PM64 °FScattered clouds.14 mph64%29.77 "HgN/A
7:30 PM64 °FScattered clouds.12 mph68%29.77 "HgN/A
7:00 PM64 °FScattered clouds.15 mph73%29.77 "HgN/A
6:30 PM64 °FScattered clouds.13 mph73%29.77 "HgN/A
6:00 PM61 °FSprinkles. Broken clouds.28 mph77%29.80 "HgN/A
5:30 PM66 °FScattered clouds.21 mph56%29.77 "HgN/A
5:00 PM64 °FBroken clouds.14 mph73%29.80 "HgN/A
4:30 PM66 °FBroken clouds.15 mph64%29.80 "HgN/A
4:00 PM70 °FPartly sunny.18 mph64%29.80 "HgN/A
3:30 PM68 °FScattered clouds.15 mph73%29.80 "HgN/A
3:00 PM64 °FScattered showers. Broken clouds.16 mph88%29.80 "HgN/A
Weather by CustomWeather, © 2014

See weather overviewHow to use our weather pages